Time,TemperatureF,DewpointF,PressureIn,WindDirection,WindDirectionDegrees,WindSpeedMPH,WindSpeedGustMPH,Humidity,HourlyPrecipIn,Conditions,Clouds,dailyrainin,SoftwareType,DateUTC
2013-05-06 00:02:00,47.0,41.0,30.20,ESE,113,2.0,-999.0,79,-99.99,,,-99.99,,2013-05-06 04:02:00,
2013-05-06 00:12:00,47.0,41.0,30.20,ESE,113,2.0,-999.0,79,-99.99,,,-99.99,,2013-05-06 04:12:00,
2013-05-06 00:23:00,47.0,41.0,30.19,ESE,112,5.0,-999.0,80,-99.99,,,-99.99,,2013-05-06 04:23:00,
2013-05-06 00:32:00,46.0,41.0,30.19,ESE,112,3.0,-999.0,81,-99.99,,,-99.99,,2013-05-06 04:32:00,
2013-05-06 00:43:00,46.0,41.0,30.19,ESE,112,3.0,-999.0,81,-99.99,,,-99.99,,2013-05-06 04:43:00,
2013-05-06 00:53:00,46.0,41.0,30.19,ESE,111,4.0,-999.0,82,-99.99,,,-99.99,,2013-05-06 04:53:00,
2013-05-06 01:02:00,46.0,41.0,30.19,ESE,105,5.0,-999.0,83,-99.99,,,-99.99,,2013-05-06 05:02:00,
2013-05-06 01:12:00,46.0,41.0,30.19,ESE,105,5.0,-999.0,83,-99.99,,,-99.99,,2013-05-06 05:12:00,
2013-05-06 01:22:00,45.0,40.0,30.19,East,99,4.0,-999.0,83,-99.99,,,-99.99,,2013-05-06 05:22:00,
2013-05-06 01:32:00,45.0,40.0,30.20,East,99,3.0,-999.0,84,-99.99,,,-99.99,,2013-05-06 05:32:00,
2013-05-06 01:42:00,45.0,40.0,30.20,East,99,3.0,-999.0,84,-99.99,,,-99.99,,2013-05-06 05:42:00,
2013-05-06 01:52:00,44.0,39.0,30.19,East,99,1.0,-999.0,84,-99.99,,,-99.99,,2013-05-06 05:52:00,
2013-05-06 02:02:00,44.0,40.0,30.19,East,99,2.0,-999.0,86,-99.99,,,-99.99,,2013-05-06 06:02:00,
2013-05-06 02:12:00,44.0,40.0,30.19,East,99,2.0,-999.0,86,-99.99,,,-99.99,,2013-05-06 06:12:00,
2013-05-06 02:21:00,43.0,39.0,30.19,East,99,3.0,-999.0,87,-99.99,,,-99.99,,2013-05-06 06:21:00,
2013-05-06 02:32:00,43.0,40.0,30.18,East,99,3.0,-999.0,88,-99.99,,,-99.99,,2013-05-06 06:32:00,
2013-05-06 02:42:00,43.0,40.0,30.18,East,99,3.0,-999.0,88,-99.99,,,-99.99,,2013-05-06 06:42:00,
2013-05-06 02:52:00,42.0,38.0,30.18,East,99,0.0,-999.0,87,-99.99,,,-99.99,,2013-05-06 06:52:00,
2013-05-06 03:01:00,42.0,39.0,30.18,East,99,1.0,-999.0,89,-99.99,,,-99.99,,2013-05-06 07:01:00,
2013-05-06 03:11:00,42.0,39.0,30.18,East,99,1.0,-999.0,89,-99.99,,,-99.99,,2013-05-06 07:11:00,
2013-05-06 03:22:00,42.0,39.0,30.17,East,99,4.0,-999.0,90,-99.99,,,-99.99,,2013-05-06 07:22:00,
2013-05-06 03:32:00,42.0,40.0,30.17,East,99,5.0,-999.0,91,-99.99,,,-99.99,,2013-05-06 07:32:00,
2013-05-06 03:42:00,42.0,40.0,30.17,East,99,5.0,-999.0,91,-99.99,,,-99.99,,2013-05-06 07:42:00,
2013-05-06 03:52:00,42.0,40.0,30.17,East,88,6.0,-999.0,92,-99.99,,,-99.99,,2013-05-06 07:52:00,
2013-05-06 04:02:00,42.0,40.0,30.17,East,88,3.0,-999.0,93,-99.99,,,-99.99,,2013-05-06 08:02:00,
2013-05-06 04:12:00,42.0,40.0,30.17,East,88,3.0,-999.0,93,-99.99,,,-99.99,,2013-05-06 08:12:00,
2013-05-06 04:22:00,43.0,41.0,30.17,East,88,3.0,-999.0,93,-99.99,,,-99.99,,2013-05-06 08:22:00,
2013-05-06 04:32:00,43.0,41.0,30.18,East,88,2.0,-999.0,93,-99.99,,,-99.99,,2013-05-06 08:32:00,
2013-05-06 04:42:00,43.0,41.0,30.18,East,88,2.0,-999.0,93,-99.99,,,-99.99,,2013-05-06 08:42:00,
2013-05-06 04:52:00,43.0,41.0,30.18,East,86,4.0,-999.0,94,-99.99,,,-99.99,,2013-05-06 08:52:00,
2013-05-06 05:01:00,43.0,41.0,30.18,ENE,57,5.0,-999.0,94,-99.99,,,-99.99,,2013-05-06 09:01:00,
2013-05-06 05:11:00,43.0,41.0,30.18,ENE,57,5.0,-999.0,94,-99.99,,,-99.99,,2013-05-06 09:11:00,
2013-05-06 05:22:00,43.0,41.0,30.19,ENE,66,6.0,-999.0,94,-99.99,,,-99.99,,2013-05-06 09:22:00,
2013-05-06 05:33:00,43.0,42.0,30.19,East,82,7.0,-999.0,95,-99.99,,,-99.99,,2013-05-06 09:33:00,
2013-05-06 05:43:00,43.0,42.0,30.19,East,82,7.0,-999.0,95,-99.99,,,-99.99,,2013-05-06 09:43:00,
2013-05-06 05:53:00,43.0,42.0,30.19,East,80,7.0,-999.0,95,-99.99,,,-99.99,,2013-05-06 09:53:00,
2013-05-06 06:02:00,44.0,43.0,30.19,ENE,75,5.0,-999.0,96,-99.99,,,-99.99,,2013-05-06 10:02:00,
2013-05-06 06:12:00,44.0,43.0,30.19,ENE,75,5.0,-999.0,96,-99.99,,,-99.99,,2013-05-06 10:12:00,
2013-05-06 06:22:00,44.0,43.0,30.19,ENE,71,6.0,-999.0,96,-99.99,,,-99.99,,2013-05-06 10:22:00,
2013-05-06 06:33:00,44.0,43.0,30.20,ENE,69,5.0,-999.0,96,-99.99,,,-99.99,,2013-05-06 10:33:00,
2013-05-06 06:42:00,44.0,43.0,30.20,ENE,69,5.0,-999.0,96,-99.99,,,-99.99,,2013-05-06 10:42:00,
2013-05-06 06:52:00,45.0,44.0,30.20,NE,46,6.0,-999.0,96,-99.99,,,-99.99,,2013-05-06 10:52:00,
2013-05-06 07:02:00,45.0,44.0,30.20,NE,46,6.0,-999.0,97,-99.99,,,-99.99,,2013-05-06 11:02:00,
2013-05-06 07:12:00,45.0,44.0,30.20,NE,46,6.0,-999.0,97,-99.99,,,-99.99,,2013-05-06 11:12:00,
2013-05-06 07:22:00,45.0,44.0,30.20,NE,46,6.0,-999.0,97,-99.99,,,-99.99,,2013-05-06 11:22:00,
2013-05-06 07:32:00,45.0,44.0,30.20,NE,46,4.0,-999.0,97,-99.99,,,-99.99,,2013-05-06 11:32:00,
2013-05-06 07:42:00,45.0,44.0,30.20,NE,46,4.0,-999.0,97,-99.99,,,-99.99,,2013-05-06 11:42:00,
2013-05-06 07:52:00,46.0,45.0,30.20,NE,43,5.0,-999.0,97,-99.99,,,-99.99,,2013-05-06 11:52:00,
2013-05-06 08:01:00,46.0,45.0,30.20,NE,42,6.0,-999.0,97,-99.99,,,-99.99,,2013-05-06 12:01:00,
2013-05-06 08:12:00,46.0,45.0,30.20,NE,42,6.0,-999.0,97,-99.99,,,-99.99,,2013-05-06 12:12:00,
2013-05-06 08:21:00,46.0,45.0,30.20,NE,40,5.0,-999.0,97,-99.99,,,-99.99,,2013-05-06 12:21:00,
2013-05-06 08:32:00,46.0,45.0,30.20,NE,38,6.0,-999.0,97,-99.99,,,-99.99,,2013-05-06 12:32:00,
2013-05-06 08:42:00,46.0,45.0,30.20,NE,38,6.0,-999.0,97,-99.99,,,-99.99,,2013-05-06 12:42:00,
2013-05-06 08:52:00,47.0,46.0,30.20,NE,53,7.0,-999.0,98,-99.99,,,-99.99,,2013-05-06 12:52:00,
2013-05-06 09:01:00,47.0,46.0,30.21,NE,50,6.0,-999.0,97,-99.99,,,-99.99,,2013-05-06 13:01:00,
2013-05-06 09:11:00,47.0,46.0,30.21,NE,50,6.0,-999.0,97,-99.99,,,-99.99,,2013-05-06 13:11:00,
2013-05-06 09:21:00,48.0,47.0,30.21,NE,41,6.0,-999.0,97,-99.99,,,-99.99,,2013-05-06 13:21:00,
2013-05-06 09:32:00,48.0,47.0,30.21,ENE,63,7.0,-999.0,97,-99.99,,,-99.99,,2013-05-06 13:32:00,
2013-05-06 09:42:00,48.0,47.0,30.21,ENE,63,7.0,-999.0,97,-99.99,,,-99.99,,2013-05-06 13:42:00,
2013-05-06 09:52:00,49.0,48.0,30.20,NNE,31,7.0,-999.0,96,-99.99,,,-99.99,,2013-05-06 13:52:00,
2013-05-06 10:01:00,49.0,48.0,30.21,NE,49,7.0,-999.0,95,-99.99,,,-99.99,,2013-05-06 14:01:00,
2013-05-06 10:11:00,49.0,48.0,30.21,NE,49,7.0,-999.0,95,-99.99,,,-99.99,,2013-05-06 14:11:00,
2013-05-06 10:21:00,50.0,48.0,30.21,NE,37,6.0,-999.0,93,-99.99,,,-99.99,,2013-05-06 14:21:00,
2013-05-06 10:32:00,51.0,48.0,30.21,NNE,26,8.0,-999.0,91,-99.99,,,-99.99,,2013-05-06 14:32:00,
2013-05-06 10:42:00,51.0,48.0,30.21,NNE,26,8.0,-999.0,91,-99.99,,,-99.99,,2013-05-06 14:42:00,
2013-05-06 10:52:00,52.0,49.0,30.21,NNE,32,8.0,-999.0,90,-99.99,,,-99.99,,2013-05-06 14:52:00,
2013-05-06 11:01:00,52.0,49.0,30.21,NNE,28,7.0,-999.0,90,-99.99,,,-99.99,,2013-05-06 15:01:00,
2013-05-06 11:11:00,52.0,49.0,30.21,NNE,28,7.0,-999.0,90,-99.99,,,-99.99,,2013-05-06 15:11:00,
2013-05-06 11:21:00,52.0,49.0,30.21,NE,39,9.0,-999.0,89,-99.99,,,-99.99,,2013-05-06 15:21:00,
2013-05-06 11:33:00,54.0,51.0,30.20,NE,49,7.0,-999.0,88,-99.99,,,-99.99,,2013-05-06 15:33:00,
2013-05-06 11:42:00,54.0,51.0,30.20,NE,49,7.0,-999.0,88,-99.99,,,-99.99,,2013-05-06 15:42:00,
2013-05-06 11:53:00,54.0,50.0,30.20,NNE,29,8.0,-999.0,86,-99.99,,,-99.99,,2013-05-06 15:53:00,
2013-05-06 12:03:00,54.0,50.0,30.20,ENE,64,11.0,-999.0,86,-99.99,,,-99.99,,2013-05-06 16:03:00,
2013-05-06 12:13:00,54.0,50.0,30.20,ENE,64,11.0,-999.0,86,-99.99,,,-99.99,,2013-05-06 16:13:00,
2013-05-06 12:23:00,55.0,51.0,30.19,ENE,67,9.0,-999.0,86,-99.99,,,-99.99,,2013-05-06 16:23:00,
2013-05-06 12:33:00,56.0,52.0,30.19,NNE,23,9.0,-999.0,85,-99.99,,,-99.99,,2013-05-06 16:33:00,
2013-05-06 12:42:00,56.0,52.0,30.19,NNE,23,9.0,-999.0,85,-99.99,,,-99.99,,2013-05-06 16:42:00,
2013-05-06 12:52:00,57.0,52.0,30.18,NNE,30,8.0,-999.0,84,-99.99,,,-99.99,,2013-05-06 16:52:00,
2013-05-06 13:03:00,58.0,53.0,30.17,NE,51,9.0,-999.0,83,-99.99,,,-99.99,,2013-05-06 17:03:00,
2013-05-06 13:12:00,58.0,53.0,30.17,NE,51,9.0,-999.0,83,-99.99,,,-99.99,,2013-05-06 17:12:00,
2013-05-06 13:23:00,59.0,53.0,30.17,ENE,58,10.0,-999.0,81,-99.99,,,-99.99,,2013-05-06 17:23:00,
2013-05-06 13:31:00,59.0,53.0,30.17,NNE,33,10.0,-999.0,80,-99.99,,,-99.99,,2013-05-06 17:31:00,
2013-05-06 13:42:00,59.0,53.0,30.17,NNE,33,10.0,-999.0,80,-99.99,,,-99.99,,2013-05-06 17:42:00,
2013-05-06 13:52:00,60.0,53.0,30.17,ENE,59,8.0,-999.0,79,-99.99,,,-99.99,,2013-05-06 17:52:00,
2013-05-06 14:01:00,59.0,53.0,30.16,NNE,30,9.0,-999.0,80,-99.99,,,-99.99,,2013-05-06 18:01:00,
2013-05-06 14:12:00,59.0,53.0,30.16,NNE,30,9.0,-999.0,80,-99.99,,,-99.99,,2013-05-06 18:12:00,
2013-05-06 14:22:00,59.0,52.0,30.16,NE,37,9.0,-999.0,79,-99.99,,,-99.99,,2013-05-06 18:22:00,
2013-05-06 14:32:00,60.0,53.0,30.16,ENE,59,10.0,-999.0,78,-99.99,,,-99.99,,2013-05-06 18:32:00,
2013-05-06 14:43:00,60.0,53.0,30.16,ENE,59,10.0,-999.0,78,-99.99,,,-99.99,,2013-05-06 18:43:00,
2013-05-06 14:52:00,61.0,54.0,30.15,ENE,65,9.0,-999.0,78,-99.99,,,-99.99,,2013-05-06 18:52:00,
2013-05-06 15:01:00,61.0,54.0,30.14,NE,38,7.0,-999.0,77,-99.99,,,-99.99,,2013-05-06 19:01:00,
2013-05-06 15:11:00,61.0,54.0,30.14,NE,38,7.0,-999.0,77,-99.99,,,-99.99,,2013-05-06 19:11:00,
2013-05-06 15:22:00,61.0,54.0,30.14,East,90,8.0,-999.0,77,-99.99,,,-99.99,,2013-05-06 19:22:00,
2013-05-06 15:32:00,61.0,53.0,30.14,NNE,21,8.0,-999.0,76,-99.99,,,-99.99,,2013-05-06 19:32:00,
2013-05-06 15:42:00,61.0,53.0,30.14,NNE,21,8.0,-999.0,76,-99.99,,,-99.99,,2013-05-06 19:42:00,
2013-05-06 15:52:00,61.0,54.0,30.13,NE,46,8.0,-999.0,77,-99.99,,,-99.99,,2013-05-06 19:52:00,
2013-05-06 16:02:00,62.0,55.0,30.12,East,91,8.0,-999.0,77,-99.99,,,-99.99,,2013-05-06 20:02:00,
2013-05-06 16:11:00,62.0,55.0,30.12,East,91,8.0,-999.0,77,-99.99,,,-99.99,,2013-05-06 20:11:00,
2013-05-06 16:21:00,63.0,55.0,30.12,NE,48,7.0,-999.0,74,-99.99,,,-99.99,,2013-05-06 20:21:00,
2013-05-06 16:32:00,64.0,56.0,30.11,ESE,109,8.0,-999.0,74,-99.99,,,-99.99,,2013-05-06 20:32:00,
2013-05-06 16:42:00,64.0,56.0,30.11,ESE,109,8.0,-999.0,74,-99.99,,,-99.99,,2013-05-06 20:42:00,
2013-05-06 16:52:00,64.0,55.0,30.11,ENE,63,8.0,-999.0,73,-99.99,,,-99.99,,2013-05-06 20:52:00,
2013-05-06 17:01:00,63.0,54.0,30.11,NE,36,9.0,-999.0,73,-99.99,,,-99.99,,2013-05-06 21:01:00,
2013-05-06 17:11:00,63.0,54.0,30.11,NE,36,9.0,-999.0,73,-99.99,,,-99.99,,2013-05-06 21:11:00,
2013-05-06 17:21:00,63.0,55.0,30.11,East,86,9.0,-999.0,74,-99.99,,,-99.99,,2013-05-06 21:21:00,
2013-05-06 17:33:00,63.0,54.0,30.11,ENE,77,8.0,-999.0,73,-99.99,,,-99.99,,2013-05-06 21:33:00,
2013-05-06 17:43:00,63.0,54.0,30.11,ENE,77,8.0,-999.0,73,-99.99,,,-99.99,,2013-05-06 21:43:00,
2013-05-06 17:53:00,64.0,55.0,30.11,East,83,7.0,-999.0,73,-99.99,,,-99.99,,2013-05-06 21:53:00,
2013-05-06 18:03:00,64.0,55.0,30.11,ENE,75,6.0,-999.0,73,-99.99,,,-99.99,,2013-05-06 22:03:00,
2013-05-06 18:12:00,64.0,55.0,30.11,ENE,75,6.0,-999.0,73,-99.99,,,-99.99,,2013-05-06 22:12:00,
2013-05-06 18:22:00,65.0,56.0,30.10,East,90,8.0,-999.0,72,-99.99,,,-99.99,,2013-05-06 22:22:00,
2013-05-06 18:33:00,64.0,55.0,30.10,ENE,64,8.0,-999.0,72,-99.99,,,-99.99,,2013-05-06 22:33:00,
2013-05-06 18:45:00,64.0,55.0,30.10,ENE,64,8.0,-999.0,72,-99.99,,,-99.99,,2013-05-06 22:45:00,
2013-05-06 18:52:00,64.0,55.0,30.10,ENE,64,7.0,-999.0,73,-99.99,,,-99.99,,2013-05-06 22:52:00,
2013-05-06 19:03:00,64.0,55.0,30.10,East,85,7.0,-999.0,73,-99.99,,,-99.99,,2013-05-06 23:03:00,
2013-05-06 19:12:00,64.0,55.0,30.10,East,85,7.0,-999.0,73,-99.99,,,-99.99,,2013-05-06 23:12:00,
2013-05-06 19:22:00,64.0,56.0,30.10,ESE,105,9.0,-999.0,74,-99.99,,,-99.99,,2013-05-06 23:22:00,
2013-05-06 19:32:00,63.0,55.0,30.10,ENE,73,8.0,-999.0,75,-99.99,,,-99.99,,2013-05-06 23:32:00,
2013-05-06 19:42:00,63.0,55.0,30.10,ENE,73,8.0,-999.0,75,-99.99,,,-99.99,,2013-05-06 23:42:00,
2013-05-06 19:52:00,63.0,55.0,30.11,East,90,8.0,-999.0,76,-99.99,,,-99.99,,2013-05-06 23:52:00,
2013-05-06 20:01:00,62.0,55.0,30.11,East,90,6.0,-999.0,77,-99.99,,,-99.99,,2013-05-07 00:01:00,
2013-05-06 20:11:00,62.0,55.0,30.11,East,90,6.0,-999.0,77,-99.99,,,-99.99,,2013-05-07 00:11:00,
2013-05-06 20:21:00,62.0,55.0,30.11,ESE,104,5.0,-999.0,78,-99.99,,,-99.99,,2013-05-07 00:21:00,
2013-05-06 20:32:00,61.0,55.0,30.11,ESE,107,7.0,-999.0,80,-99.99,,,-99.99,,2013-05-07 00:32:00,
2013-05-06 20:42:00,61.0,55.0,30.11,ESE,107,7.0,-999.0,80,-99.99,,,-99.99,,2013-05-07 00:42:00,
2013-05-06 20:52:00,61.0,55.0,30.12,ESE,115,9.0,-999.0,82,-99.99,,,-99.99,,2013-05-07 00:52:00,
2013-05-06 21:01:00,60.0,55.0,30.12,East,94,7.0,-999.0,83,-99.99,,,-99.99,,2013-05-07 01:01:00,
2013-05-06 21:11:00,60.0,55.0,30.12,East,94,7.0,-999.0,83,-99.99,,,-99.99,,2013-05-07 01:11:00,
2013-05-06 21:21:00,59.0,54.0,30.13,East,96,5.0,-999.0,84,-99.99,,,-99.99,,2013-05-07 01:21:00,
2013-05-06 21:32:00,59.0,55.0,30.13,East,80,4.0,-999.0,86,-99.99,,,-99.99,,2013-05-07 01:32:00,
2013-05-06 21:42:00,59.0,55.0,30.13,East,80,4.0,-999.0,86,-99.99,,,-99.99,,2013-05-07 01:42:00,
2013-05-06 21:53:00,59.0,55.0,30.13,East,80,8.0,-999.0,88,-99.99,,,-99.99,,2013-05-07 01:53:00,
2013-05-06 22:02:00,59.0,55.0,30.13,ENE,66,6.0,-999.0,88,-99.99,,,-99.99,,2013-05-07 02:02:00,
2013-05-06 22:11:00,59.0,55.0,30.13,ENE,66,6.0,-999.0,88,-99.99,,,-99.99,,2013-05-07 02:11:00,
2013-05-06 22:22:00,59.0,55.0,30.13,ENE,76,6.0,-999.0,88,-99.99,,,-99.99,,2013-05-07 02:22:00,
2013-05-06 22:32:00,59.0,55.0,30.13,East,83,6.0,-999.0,88,-99.99,,,-99.99,,2013-05-07 02:32:00,
2013-05-06 22:42:00,59.0,55.0,30.13,East,83,6.0,-999.0,88,-99.99,,,-99.99,,2013-05-07 02:42:00,
2013-05-06 22:52:00,59.0,56.0,30.13,ENE,71,7.0,-999.0,89,-99.99,,,-99.99,,2013-05-07 02:52:00,
2013-05-06 23:02:00,58.0,55.0,30.13,East,82,5.0,-999.0,89,-99.99,,,-99.99,,2013-05-07 03:02:00,
2013-05-06 23:11:00,58.0,55.0,30.13,East,82,5.0,-999.0,89,-99.99,,,-99.99,,2013-05-07 03:11:00,
2013-05-06 23:22:00,58.0,55.0,30.12,ENE,78,5.0,-999.0,90,-99.99,,,-99.99,,2013-05-07 03:22:00,
2013-05-06 23:32:00,58.0,55.0,30.12,ENE,61,5.0,-999.0,90,-99.99,,,-99.99,,2013-05-07 03:32:00,
2013-05-06 23:43:00,58.0,55.0,30.12,ENE,61,5.0,-999.0,90,-99.99,,,-99.99,,2013-05-07 03:43:00,
2013-05-06 23:53:00,57.0,54.0,30.11,NE,43,7.0,-999.0,91,-99.99,,,-99.99,,2013-05-07 03:53:00,